SCP
0 0 1 1 1 1 0 0 0 0 0 0 0 0 0 0 0 0 1 1 1 2 3 3 3 3 3 2 2 2 2 2 2 2 2 2 2 2 1 1 1 1 1 0 0 0 0 0 0
0 1 1 1 1 1 0 0 0 0 0 0 0 0 0 0 0 1 1 1 2 2 3 3 3 3 3 3 2 2 2 2 2 2 2 2 2 2 2 2 1 1 1 1 0 0 0 0 0
0 1 1 1 1 0 0 0 0 0 0 0 0 0 0 0 0 1 1 1 2 2 3 3 4 4 3 3 3 2 2 3 3 3 3 3 3 2 2 2 2 2 1 1 1 1 1 0 0
1 1 1 1 0 0 0 0 0 0 0 0 0 0 1 1 1 1 1 1 2 3 3 3 4 4 3 3 3 3 3 3 3 3 3 3 3 3 3 3 2 2 2 1 1 1 1 0 0
1 1 1 0 0 0 0 0 0 0 1 1 1 1 1 1 1 1 1 2 3 3 3 3 4 3 3 4 3 3 3 3 3 3 3 3 3 3 3 3 3 2 2 1 1 1 1 1 0
1 1 0 0 0 0 0 0 0 1 1 1 1 1 1 1 1 1 1 2 3 4 4 3 3 3 3 4 4 3 3 3 3 3 3 3 3 4 4 3 3 2 1 1 1 1 0 1 1
1 1 0 0 0 0 0 0 1 1 1 1 1 1 1 1 1 1 1 2 3 4 4 3 3 3 3 3 4 4 3 3 3 3 3 3 4 4 4 3 3 2 1 1 1 0 0 1 1
1 1 0 0 0 0 0 1 1 1 1 1 1 1 1 1 1 1 2 3 4 4 4 3 3 3 3 3 3 3 3 3 3 3 3 3 4 4 4 3 2 1 1 1 1 1 1 0 0
1 1 1 0 0 0 0 1 1 1 1 1 1 1 1 1 1 2 2 3 4 5 4 4 3 3 3 2 3 3 3 3 3 3 3 4 4 3 2 1 1 1 1 1 0 0 0 0 0
1 1 1 0 0 0 1 1 1 1 1 1 1 1 1 1 2 2 2 3 4 5 4 4 3 3 3 3 3 3 3 3 2 3 3 4 3 2 1 1 0 0 0 0 0 0 0 0 0
1 1 1 0 0 0 1 1 1 1 1 2 2 1 2 2 2 2 2 2 3 4 4 4 3 3 3 3 3 4 3 3 2 2 3 3 3 2 1 1 0 0 0 0 0 0 0 0 0
1 1 1 0 1 1 1 1 1 1 2 2 2 2 2 1 2 2 2 2 3 4 5 4 3 3 3 3 4 4 4 3 2 2 2 2 2 1 1 1 0 0 0 0 0 0 0 0 0
1 1 1 1 1 1 2 2 2 2 2 2 2 2 2 1 1 2 2 2 3 4 5 5 4 3 3 3 4 4 4 3 3 2 2 2 2 1 1 1 0 0 0 0 0 0 0 0 0
1 1 1 1 1 1 2 2 2 2 1 2 2 2 2 2 2 2 2 2 3 4 5 5 4 3 3 4 4 4 4 3 3 3 2 2 1 1 1 1 0 0 0 0 0 0 0 0 0
1 1 1 1 1 1 2 2 2 1 1 1 1 2 2 2 2 2 2 2 3 4 5 5 4 3 3 4 4 4 4 4 3 3 2 1 1 1 1 1 0 0 0 0 0 0 0 0 0
1 1 1 1 1 1 1 2 1 1 0 1 1 1 1 1 2 2 2 2 2 3 5 5 4 3 3 4 5 5 4 4 4 3 2 1 1 1 1 1 0 0 0 0 0 0 0 0 0
0 0 1 1 1 1 1 1 1 1 0 0 0 1 1 1 1 2 2 2 2 3 4 5 4 3 3 3 5 5 5 4 4 3 2 1 1 1 1 1 1 0 0 0 0 0 0 0 0
0 0 1 1 1 1 1 1 1 1 0 0 0 0 1 1 1 1 2 2 2 3 4 5 4 3 3 3 4 5 5 5 4 4 3 2 1 1 1 1 1 0 0 0 0 0 0 0 0
0 0 0 0 0 1 1 1 1 1 0 0 0 0 0 1 1 1 2 2 3 3 4 5 4 3 3 4 4 5 5 5 5 4 3 2 1 1 1 1 1 1 0 0 0 0 0 0 0
1 1 0 0 0 1 1 1 0 0 0 0 0 0 0 1 1 2 2 2 3 3 3 4 4 3 3 3 4 5 6 6 5 4 3 2 1 1 1 1 1 1 1 0 0 0 0 0 0
0 0 0 0 0 0 0 0 0 0 0 0 0 0 0 0 1 1 2 2 3 3 3 4 4 3 3 3 3 4 6 6 6 4 3 2 1 1 1 1 1 1 1 0 0 0 0 0 0
0 0 0 0 0 0 0 0 0 0 0 0 0 0 0 0 1 1 1 2 3 3 3 4 3 3 2 3 3 4 5 5 5 5 4 2 2 1 1 1 1 1 1 0 0 0 0 0 0
0 0 0 0 0 0 0 0 0 0 0 0 0 0 0 0 1 1 1 2 3 3 4 4 3 3 2 2 3 3 3 4 5 5 4 3 2 1 1 1 1 1 0 0 0 0 0 0 0
0 0 0 0 0 0 0 0 0 0 0 0 0 0 0 0 0 1 1 2 3 3 3 3 3 3 2 2 2 2 2 3 5 5 4 3 2 2 1 1 1 0 0 0 0 0 0 0 0
0 0 0 0 0 0 0 0 0 0 0 0 0 0 0 0 0 0 1 2 3 3 3 3 3 3 3 2 2 2 2 3 4 4 4 3 3 2 1 1 1 1 0 0 0 0 0 0 0
0 0 0 0 0 0 0 0 0 0 0 0 0 0 0 0 0 0 0 1 2 2 3 3 3 3 3 2 2 2 2 2 3 3 4 3 3 2 2 1 1 1 1 0 0 0 0 0 0
0 0 0 0 0 0 0 0 0 0 0 0 0 0 0 0 0 0 0 1 1 2 2 2 3 3 3 2 2 2 2 2 2 2 2 3 3 2 2 1 1 1 1 0 0 0 0 0 0
0 0 0 0 0 0 0 0 0 0 0 0 0 0 0 0 0 0 0 1 1 2 2 2 2 3 3 2 2 1 1 1 1 1 1 2 3 3 2 2 1 1 1 1 0 0 0 0 0
0 0 0 0 0 0 0 0 0 0 0 0 0 0 0 0 0 0 0 1 1 2 2 2 2 2 2 2 1 1 1 1 1 1 1 2 3 3 3 2 2 1 1 1 1 1 0 0 0
0 0 0 0 0 0 0 0 0 0 0 0 1 1 1 0 0 0 0 1 1 2 2 2 1 1 1 1 1 1 1 1 1 1 1 2 2 3 3 2 2 1 1 1 1 1 1 0 0
Wind_Speed
5 4 3 4 6 6 10 7 4 4 4 2 2 3 4 3 2 2 4 7 10 12 14 15 13 13 13 13 13 13 13 13 13 13 13 13 13 12 12 13 13 13 13 13 13 13 14 14 14
4 3 4 5 8 10 9 8 8 5 2 2 3 3 4 2 2 4 4 7 10 12 13 14 13 13 13 14 14 13 13 13 13 13 13 13 12 12 12 12 13 13 13 13 13 13 13 13 13
3 4 4 5 9 11 8 5 6 4 3 3 3 2 1 1 2 2 4 8 11 12 12 14 13 13 14 14 14 13 13 13 13 13 12 12 12 12 12 12 12 12 12 12 12 12 12 12 12
3 4 4 8 13 11 7 3 3 5 4 3 2 3 2 3 2 2 6 9 11 11 12 14 13 14 14 14 13 13 13 13 13 12 12 12 12 12 12 12 12 12 12 12 12 12 12 12 12
3 5 8 11 14 10 5 3 3 5 5 4 4 2 2 3 3 4 7 9 10 11 11 14 13 13 14 14 13 13 12 12 12 12 12 12 12 12 12 12 12 12 12 12 12 12 12 11 11
5 5 10 13 14 9 5 4 5 4 4 3 3 3 2 3 3 5 7 8 9 10 10 13 13 12 13 14 13 13 12 12 12 12 12 12 12 12 12 12 12 11 11 11 12 11 11 11 11
5 6 11 13 12 10 5 4 6 5 4 3 2 3 3 4 3 5 6 7 9 9 10 11 13 13 13 12 12 12 12 11 11 11 11 11 11 11 12 11 11 10 11 11 11 11 11 11 11
3 5 9 11 12 9 4 3 3 5 4 1 3 3 3 3 4 5 6 6 7 8 9 10 11 11 12 12 11 11 11 10 11 10 10 10 10 10 10 10 10 10 10 11 11 11 11 11 11
3 7 10 10 9 6 3 3 2 2 3 2 2 3 2 5 6 6 6 6 7 7 8 8 10 10 10 10 11 11 10 10 10 10 10 9 8 9 8 10 9 10 10 10 11 11 11 10 10
5 8 10 5 4 3 3 4 3 3 5 4 3 1 3 5 7 8 7 8 9 9 9 8 9 9 9 8 9 8 8 9 8 8 10 7 7 6 7 10 9 10 10 10 10 10 8 5 6
5 7 5 4 4 4 4 4 3 6 6 5 4 4 4 6 7 8 8 8 8 9 9 8 8 8 8 7 7 5 5 6 7 8 8 6 6 6 5 5 6 7 7 6 7 6 4 4 4
5 5 5 4 3 4 5 4 4 6 5 4 4 4 6 7 8 8 8 8 8 8 8 8 8 8 8 7 6 6 5 5 5 7 8 6 4 5 5 4 4 4 3 4 4 3 4 4 4
6 4 4 3 3 4 4 5 5 6 6 4 2 4 7 8 8 8 8 7 8 8 8 8 8 8 8 7 6 6 6 6 6 6 6 6 5 5 5 4 4 4 3 4 4 4 5 4 4
4 4 3 4 4 4 4 5 5 6 5 3 3 5 6 8 8 7 8 8 8 8 8 8 9 9 8 7 7 6 6 6 6 5 6 7 5 5 5 4 4 3 3 3 3 4 4 3 3
3 5 4 3 4 3 4 5 6 6 5 4 4 4 4 6 6 7 8 8 9 8 8 8 9 9 9 8 8 6 6 6 6 6 6 6 6 6 5 4 4 3 4 4 4 4 3 3 3
4 6 6 3 3 4 6 8 4 3 4 5 5 4 4 5 6 6 7 8 8 8 8 8 7 9 9 8 7 6 6 6 6 6 6 7 7 7 5 5 4 4 4 4 4 4 4 3 3
4 6 7 4 3 4 6 7 4 3 4 5 5 5 4 4 5 5 6 7 7 7 8 8 8 9 9 8 6 6 6 6 6 6 6 7 7 7 6 5 5 5 4 4 4 3 3 3 3
5 6 7 6 2 4 6 7 5 3 3 4 4 4 4 4 5 5 5 5 6 6 7 7 8 9 8 6 5 5 5 6 5 6 6 8 7 8 6 5 6 6 5 5 5 5 4 3 3
5 5 6 5 3 4 6 6 6 4 3 3 4 4 4 4 4 4 3 4 4 4 5 6 7 7 7 6 6 6 6 6 6 5 7 8 7 8 7 5 6 6 5 5 6 5 5 3 3
5 6 5 4 3 4 5 7 5 4 3 4 4 4 4 4 3 3 3 2 3 4 4 5 6 7 7 7 6 5 5 5 5 5 6 8 8 8 6 7 6 6 5 6 6 6 4 3 3
5 6 5 5 4 4 5 7 5 5 4 3 3 4 4 4 4 3 3 3 3 4 4 4 6 6 7 7 5 5 4 4 4 6 5 6 7 8 8 7 6 6 6 6 7 6 6 4 4
4 4 5 5 5 4 5 6 6 5 5 4 4 4 4 4 4 3 3 3 4 4 4 5 5 6 6 7 7 9 8 7 7 6 6 7 7 7 7 7 7 7 6 7 7 7 5 5 4
3 4 5 5 5 5 6 7 5 4 6 5 5 4 4 4 4 4 4 4 4 4 4 4 4 5 5 7 8 9 8 7 5 6 7 7 7 7 7 7 7 7 6 6 7 6 6 5 5
2 2 2 4 4 6 7 8 6 5 6 6 5 4 5 5 5 4 4 4 3 3 3 3 4 5 5 6 7 8 9 8 8 7 7 6 5 6 7 7 7 7 6 6 6 6 7 5 6
1 2 2 3 5 5 4 7 6 2 3 4 5 5 5 5 5 5 5 5 4 4 3 3 4 4 5 5 6 7 7 9 9 8 7 7 5 5 7 7 7 6 6 6 5 5 5 6 6
2 2 2 3 4 3 4 7 3 1 2 3 4 5 6 6 6 5 5 5 4 5 4 4 4 4 5 5 5 5 6 5 5 7 6 7 5 5 6 6 6 6 6 5 5 4 4 4 5
1 2 2 3 3 5 5 4 4 1 2 4 5 5 6 7 7 6 6 5 5 5 4 4 4 4 5 5 5 5 5 5 5 6 6 5 5 5 6 6 6 6 5 5 5 4 4 4 4
2 1 2 3 4 5 5 6 4 3 4 5 6 7 8 8 8 7 6 5 5 4 4 4 4 4 4 4 4 3 5 4 4 4 5 5 5 5 6 6 5 5 5 5 4 4 4 4 3
1 1 2 2 3 4 5 3 2 3 4 5 7 7 8 8 8 7 7 6 5 3 2 2 3 3 3 4 4 4 4 4 4 4 5 5 5 5 6 6 6 5 5 5 4 4 4 4 3
3 2 3 3 3 4 5 3 3 2 3 5 7 7 7 8 7 7 7 6 5 4 3 2 2 2 2 3 3 3 3 4 4 4 4 5 6 5 5 6 6 5 5 5 4 4 4 4 4
Wind_Direction
308 287 245 223 218 223 229 212 211 186 190 196 201 218 223 213 237 50 77 148 145 150 151 151 147 147 143 138 135 133 131 130 129 126 124 122 120 118 117 115 111 107 104 102 100 100 98 96 95
297 263 220 221 228 220 218 211 208 203 156 154 189 216 215 199 37 67 120 147 150 151 153 153 144 147 144 141 137 134 133 133 131 128 126 125 123 122 120 115 111 107 104 103 102 102 100 97 96
259 253 225 214 226 227 214 198 204 183 168 190 183 215 257 84 98 109 126 153 153 152 153 144 146 147 145 141 140 137 134 134 133 130 129 128 126 123 120 115 111 108 106 105 102 101 100 98 97
222 203 220 227 222 225 232 182 179 177 179 199 206 169 130 58 45 98 139 159 155 152 152 144 148 147 144 141 139 137 137 136 134 133 130 128 126 123 119 115 112 109 108 106 104 102 100 99 99
228 214 210 221 225 220 227 245 195 200 186 186 207 201 139 81 64 119 149 158 156 152 151 149 149 148 145 142 140 139 138 137 134 132 129 128 127 123 118 115 114 111 109 109 107 105 103 102 100
204 216 218 220 218 218 218 231 218 225 206 184 208 216 124 93 99 131 152 160 155 152 152 150 148 148 146 144 142 140 139 138 135 133 130 127 125 123 122 119 116 114 112 112 111 110 108 105 101
223 214 225 223 219 218 212 222 222 227 223 207 231 224 149 120 109 145 154 156 155 154 154 154 157 154 148 145 143 141 139 136 134 132 128 125 124 124 120 117 116 115 114 113 111 110 108 106 103
257 224 219 221 221 217 191 212 235 242 236 289 254 229 183 136 136 149 150 149 151 158 159 159 161 161 158 153 143 140 137 134 130 125 120 118 121 123 120 121 114 115 114 113 111 108 107 105 103
239 225 218 214 219 214 188 214 243 278 227 232 265 312 62 130 147 149 153 157 158 162 164 165 166 163 161 157 149 146 138 133 137 131 124 139 142 136 135 115 113 115 114 113 111 109 107 107 104
216 224 221 222 234 237 224 237 236 222 231 228 232 221 135 152 166 170 174 177 176 175 174 173 170 167 163 159 160 160 157 155 161 154 154 155 144 130 122 112 111 112 111 111 108 110 121 132 121
216 230 227 236 260 264 247 259 254 231 235 241 228 200 182 184 186 189 191 190 190 183 179 177 175 171 169 165 167 163 162 162 165 161 160 152 143 136 135 136 132 131 134 128 126 140 137 127 118
218 236 247 249 262 260 259 258 261 258 267 288 260 210 198 205 201 201 202 200 198 191 187 183 179 178 176 174 172 170 166 168 167 167 163 157 152 151 146 149 145 147 145 141 146 136 132 128 128
223 238 252 262 259 258 259 257 267 272 288 282 243 206 211 216 219 211 210 209 207 200 194 191 185 183 181 179 176 176 173 171 169 167 169 165 161 155 154 153 152 151 146 148 144 147 139 133 127
227 236 252 254 239 245 257 265 261 271 286 265 219 214 219 222 225 221 213 214 214 209 201 195 193 190 185 185 181 179 175 170 169 170 171 170 165 160 162 158 155 154 153 149 151 145 139 135 134
243 232 225 254 251 246 259 253 248 274 272 256 240 232 234 238 234 232 225 219 216 212 207 201 198 195 192 191 188 181 179 173 171 170 173 174 170 167 167 162 159 156 156 154 150 144 141 137 139
224 223 222 234 257 245 239 244 260 274 263 258 253 250 249 250 247 245 242 231 221 212 210 204 200 199 197 193 191 184 183 177 174 171 174 176 174 175 171 167 164 160 161 162 158 157 151 149 154
211 221 229 237 241 243 232 252 279 287 270 265 259 256 256 263 266 263 251 237 225 215 208 205 201 199 196 192 191 186 180 181 179 176 178 176 175 178 180 173 165 167 168 168 166 166 162 156 155
212 223 230 239 245 239 234 251 280 293 282 274 271 267 262 262 266 269 262 241 225 219 213 209 204 200 192 186 186 182 181 185 184 182 181 180 177 178 182 176 173 174 173 172 173 164 161 161 156
225 240 244 252 263 265 248 261 279 275 289 297 295 284 278 271 270 273 269 251 225 216 216 214 204 197 189 185 187 186 184 184 185 187 184 184 182 182 183 178 176 181 182 180 177 167 160 164 165
224 236 247 260 269 258 259 269 277 270 269 282 300 301 292 292 291 288 279 263 233 219 221 216 204 199 197 193 192 191 184 183 183 182 185 185 185 186 187 187 184 185 183 182 180 175 173 175 198
228 230 240 245 277 236 258 257 239 257 259 286 299 300 302 294 283 279 275 267 250 231 226 224 207 198 199 193 182 173 172 174 182 185 185 186 186 187 188 191 188 188 189 186 187 188 192 187 195
244 247 248 232 239 238 233 253 236 246 257 278 290 294 300 297 292 285 276 268 255 243 235 230 211 198 198 191 190 188 189 191 195 191 185 183 185 185 186 189 189 189 192 191 191 194 197 193 193
276 284 258 226 227 247 234 245 246 229 246 266 279 286 295 297 293 288 279 265 252 245 236 230 208 197 199 199 197 200 201 198 188 184 182 181 180 183 185 188 188 189 191 193 192 194 198 201 203
292 244 226 218 222 238 232 234 246 219 241 255 270 288 301 306 300 294 289 275 257 252 240 227 205 199 198 200 200 202 200 195 186 188 185 183 180 181 186 189 191 190 189 194 195 197 200 203 205
0 220 207 208 213 231 211 232 244 243 274 272 279 293 308 313 304 301 296 288 276 260 242 224 213 205 201 199 202 203 200 197 193 190 191 188 185 185 187 188 191 190 188 192 194 197 202 204 204
285 256 251 247 240 248 224 236 248 280 310 308 301 311 323 323 317 308 299 290 280 264 245 225 217 213 202 200 202 204 199 193 193 195 195 195 191 186 183 187 188 187 187 189 190 195 203 204 204
244 216 293 281 276 262 234 249 247 244 313 328 330 335 337 336 331 323 312 301 290 274 253 235 221 213 204 201 196 195 195 193 189 191 194 192 186 179 178 182 180 183 186 189 187 192 196 202 206
294 264 233 221 244 251 247 244 242 246 306 327 335 338 338 336 335 331 321 314 308 290 270 248 226 213 206 201 196 193 194 189 180 179 186 182 179 174 169 172 176 179 183 186 187 188 196 202 205
193 215 259 244 258 266 260 258 21 282 307 318 330 337 338 335 335 334 330 325 321 319 301 281 248 219 205 201 194 184 181 177 172 176 183 179 173 174 176 174 177 181 184 185 185 187 189 198 203
257 252 243 250 250 266 270 279 47 344 349 341 336 340 340 337 336 337 336 335 339 340 336 327 290 243 205 192 186 174 166 166 169 172 178 177 176 180 182 177 178 180 184 186 186 191 194 196 204